Year,Month,Day,Hour,Minute,Value (Times are PST for windgust in km/hr)
2014,02,13,00,14,4.80
2014,02,13,00,15,4.80
2014,02,13,00,16,4.80
2014,02,13,00,18,6.40
2014,02,13,00,19,6.40
2014,02,13,00,27,4.80
2014,02,13,00,28,8.10
2014,02,13,00,29,8.10
2014,02,13,00,30,6.40
2014,02,13,00,31,8.10
2014,02,13,00,32,8.10
2014,02,13,00,33,4.80
2014,02,13,00,34,6.40
2014,02,13,00,35,6.40
2014,02,13,00,36,8.10
2014,02,13,00,37,9.60
2014,02,13,00,38,6.40
2014,02,13,00,39,9.60
2014,02,13,00,40,6.40
2014,02,13,00,41,8.10
2014,02,13,00,42,6.40
2014,02,13,00,43,3.20
2014,02,13,00,44,4.80
2014,02,13,00,45,9.60
2014,02,13,00,46,9.60
2014,02,13,00,47,8.10
2014,02,13,00,48,9.60
2014,02,13,00,49,6.40
2014,02,13,00,50,6.40
2014,02,13,00,51,8.10
2014,02,13,00,52,1.60
2014,02,13,00,53,9.60
2014,02,13,00,54,8.10
2014,02,13,00,55,4.80
2014,02,13,00,58,3.20
2014,02,13,00,59,6.40
2014,02,13,01,00,8.10
2014,02,13,01,01,14.50
2014,02,13,01,02,16.10
2014,02,13,01,03,9.60
2014,02,13,01,04,11.30
2014,02,13,01,05,9.60
2014,02,13,01,06,9.60
2014,02,13,01,07,8.10
2014,02,13,01,08,11.30
2014,02,13,01,09,11.30
2014,02,13,01,10,14.50
2014,02,13,01,11,11.30
2014,02,13,01,12,9.60
2014,02,13,01,13,8.10
2014,02,13,01,14,3.20
2014,02,13,01,15,6.40
2014,02,13,01,16,6.40
2014,02,13,01,17,4.80
2014,02,13,01,18,6.40
2014,02,13,01,19,6.40
2014,02,13,01,20,6.40
2014,02,13,01,22,6.40
2014,02,13,01,25,8.10
2014,02,13,01,26,9.60
2014,02,13,01,27,12.90
2014,02,13,01,28,14.50
2014,02,13,01,29,8.10
2014,02,13,01,30,9.60
2014,02,13,01,31,11.30
2014,02,13,01,32,11.30
2014,02,13,01,33,3.20
2014,02,13,01,34,9.60
2014,02,13,01,35,11.30
2014,02,13,01,36,9.60
2014,02,13,01,37,11.30
2014,02,13,01,38,9.60
2014,02,13,01,39,9.60
2014,02,13,01,40,9.60
2014,02,13,01,41,12.90
2014,02,13,01,42,11.30
2014,02,13,01,43,9.60
2014,02,13,01,44,9.60
2014,02,13,01,45,11.30
2014,02,13,01,46,16.10
2014,02,13,01,47,16.10
2014,02,13,01,48,14.50
2014,02,13,01,49,16.10
2014,02,13,01,50,16.10
2014,02,13,01,51,11.30
2014,02,13,01,52,16.10
2014,02,13,01,53,19.30
2014,02,13,01,54,14.50
2014,02,13,01,55,11.30
2014,02,13,01,56,16.10
2014,02,13,01,57,17.70
2014,02,13,01,58,14.50
2014,02,13,01,59,17.70
2014,02,13,02,00,17.70
2014,02,13,02,01,19.30
2014,02,13,02,02,8.10
2014,02,13,02,03,9.60
2014,02,13,02,04,17.70
2014,02,13,02,05,19.30
2014,02,13,02,06,11.30
2014,02,13,02,07,14.50
2014,02,13,02,08,19.30
2014,02,13,02,09,16.10
2014,02,13,02,10,9.60
2014,02,13,02,11,16.10
2014,02,13,02,12,17.70
2014,02,13,02,13,12.90
2014,02,13,02,14,14.50
2014,02,13,02,15,8.10
2014,02,13,02,16,14.50
2014,02,13,02,17,17.70
2014,02,13,02,18,16.10
2014,02,13,02,19,9.60
2014,02,13,02,20,11.30
2014,02,13,02,21,16.10
2014,02,13,02,22,20.90
2014,02,13,02,23,16.10
2014,02,13,02,24,16.10
2014,02,13,02,25,17.70
2014,02,13,02,26,17.70
2014,02,13,02,27,16.10
2014,02,13,02,28,16.10
2014,02,13,02,29,17.70
2014,02,13,02,30,17.70
2014,02,13,02,31,14.50
2014,02,13,02,32,24.20
2014,02,13,02,33,17.70
2014,02,13,02,34,19.30
2014,02,13,02,35,20.90
2014,02,13,02,36,17.70
2014,02,13,02,37,19.30
2014,02,13,02,38,16.10
2014,02,13,02,39,12.90
2014,02,13,02,40,11.30
2014,02,13,02,41,14.50
2014,02,13,02,42,17.70
2014,02,13,02,43,9.60
2014,02,13,02,44,12.90
2014,02,13,02,45,11.30
2014,02,13,02,46,19.30
2014,02,13,02,47,11.30
2014,02,13,02,48,19.30
2014,02,13,02,49,16.10
2014,02,13,02,50,17.70
2014,02,13,02,51,16.10
2014,02,13,02,52,14.50
2014,02,13,02,53,17.70
2014,02,13,02,54,16.10
2014,02,13,02,55,16.10
2014,02,13,02,56,14.50
2014,02,13,02,57,11.30
2014,02,13,02,58,14.50
2014,02,13,02,59,16.10
2014,02,13,03,00,19.30
2014,02,13,03,01,19.30
2014,02,13,03,02,14.50
2014,02,13,03,03,14.50
2014,02,13,03,04,20.90
2014,02,13,03,05,17.70
2014,02,13,03,06,20.90
2014,02,13,03,07,14.50
2014,02,13,03,08,32.20
2014,02,13,03,09,32.20
2014,02,13,03,10,17.70
2014,02,13,03,11,19.30
2014,02,13,03,12,20.90
2014,02,13,03,13,22.50
2014,02,13,03,14,14.50
2014,02,13,03,15,29.00
2014,02,13,03,16,24.20
2014,02,13,03,17,16.10
2014,02,13,03,18,14.50
2014,02,13,03,19,22.50
2014,02,13,03,20,35.40
2014,02,13,03,21,22.50
2014,02,13,03,22,25.70
2014,02,13,03,23,16.10
2014,02,13,03,24,25.70
2014,02,13,03,25,33.80
2014,02,13,03,26,25.70
2014,02,13,03,27,40.20
2014,02,13,03,28,33.80
2014,02,13,03,29,33.80
2014,02,13,03,30,35.40
2014,02,13,03,31,30.60
2014,02,13,03,32,24.20
2014,02,13,03,33,30.60
2014,02,13,03,34,29.00
2014,02,13,03,35,37.00
2014,02,13,03,36,25.70
2014,02,13,03,37,16.10
2014,02,13,03,38,22.50
2014,02,13,03,39,27.40
2014,02,13,03,40,35.40
2014,02,13,03,41,32.20
2014,02,13,03,42,38.60
2014,02,13,03,43,24.20
2014,02,13,03,44,20.90
2014,02,13,03,45,24.20
2014,02,13,03,46,16.10
2014,02,13,03,47,27.40
2014,02,13,03,48,24.20
2014,02,13,03,49,27.40
2014,02,13,03,50,29.00
2014,02,13,03,51,27.40
2014,02,13,03,52,29.00
2014,02,13,03,53,35.40
2014,02,13,03,54,37.00
2014,02,13,03,55,32.20
2014,02,13,03,56,29.00
2014,02,13,03,57,22.50
2014,02,13,03,58,20.90
2014,02,13,03,59,33.80
2014,02,13,04,00,29.00
2014,02,13,04,01,27.40
2014,02,13,04,02,40.20
2014,02,13,04,03,37.00
2014,02,13,04,04,24.20
2014,02,13,04,05,33.80
2014,02,13,04,06,40.20
2014,02,13,04,07,38.60
2014,02,13,04,08,30.60
2014,02,13,04,09,32.20
2014,02,13,04,10,37.00
2014,02,13,04,11,35.40
2014,02,13,04,12,32.20
2014,02,13,04,13,32.20
2014,02,13,04,14,48.30
2014,02,13,04,15,30.60
2014,02,13,04,16,29.00
2014,02,13,04,17,33.80
2014,02,13,04,18,40.20
2014,02,13,04,19,32.20
2014,02,13,04,20,49.90
2014,02,13,04,21,33.80
2014,02,13,04,22,19.30
2014,02,13,04,23,29.00
2014,02,13,04,24,25.70
2014,02,13,04,25,29.00
2014,02,13,04,26,33.80
2014,02,13,04,27,27.40
2014,02,13,04,28,20.90
2014,02,13,04,29,22.50
2014,02,13,04,30,22.50
2014,02,13,04,31,19.30
2014,02,13,04,32,33.80
2014,02,13,04,33,22.50
2014,02,13,04,34,27.40
2014,02,13,04,35,22.50
2014,02,13,04,36,29.00
2014,02,13,04,37,24.20
2014,02,13,04,38,27.40
2014,02,13,04,39,35.40
2014,02,13,04,40,32.20
2014,02,13,04,41,24.20
2014,02,13,04,42,27.40
2014,02,13,04,43,46.70
2014,02,13,04,44,46.70
2014,02,13,04,45,43.50
2014,02,13,04,46,38.60
2014,02,13,04,47,33.80
2014,02,13,04,48,24.20
2014,02,13,04,49,38.60
2014,02,13,04,50,35.40
2014,02,13,04,51,38.60
2014,02,13,04,52,25.70
2014,02,13,04,53,30.60
2014,02,13,04,54,33.80
2014,02,13,04,55,33.80
2014,02,13,04,56,22.50
2014,02,13,04,57,25.70
2014,02,13,04,58,33.80
2014,02,13,04,59,25.70
2014,02,13,05,00,29.00
2014,02,13,05,01,25.70
2014,02,13,05,02,45.10
2014,02,13,05,03,33.80
2014,02,13,05,04,38.60
2014,02,13,05,05,41.80
2014,02,13,05,06,33.80
2014,02,13,05,07,37.00
2014,02,13,05,08,30.60
2014,02,13,05,09,24.20
2014,02,13,05,10,35.40
2014,02,13,05,11,53.10
2014,02,13,05,12,45.10
2014,02,13,05,13,29.00
2014,02,13,05,14,38.60
2014,02,13,05,15,35.40
2014,02,13,05,16,27.40
2014,02,13,05,17,32.20
2014,02,13,05,18,25.70
2014,02,13,05,19,32.20
2014,02,13,05,20,41.80
2014,02,13,05,21,33.80
2014,02,13,05,22,30.60
2014,02,13,05,23,27.40
2014,02,13,05,24,40.20
2014,02,13,05,25,29.00
2014,02,13,05,26,29.00
2014,02,13,05,27,32.20
2014,02,13,05,28,27.40
2014,02,13,05,29,24.20
2014,02,13,05,30,30.60
2014,02,13,05,31,25.70
2014,02,13,05,32,37.00
2014,02,13,05,33,37.00
2014,02,13,05,34,46.70
2014,02,13,05,35,37.00
2014,02,13,05,36,29.00
2014,02,13,05,37,29.00
2014,02,13,05,38,30.60
2014,02,13,05,39,40.20
2014,02,13,05,40,48.30
2014,02,13,05,41,32.20
2014,02,13,05,42,35.40
2014,02,13,05,43,38.60
2014,02,13,05,44,37.00
2014,02,13,05,45,37.00
2014,02,13,05,46,32.20
2014,02,13,05,47,40.20
2014,02,13,05,48,37.00
2014,02,13,05,49,20.90
2014,02,13,05,50,51.50
2014,02,13,05,51,32.20
2014,02,13,05,52,37.00
2014,02,13,05,53,27.40
2014,02,13,05,54,27.40
2014,02,13,05,55,33.80
2014,02,13,05,56,30.60
2014,02,13,05,57,29.00
2014,02,13,05,58,29.00
2014,02,13,05,59,37.00
2014,02,13,06,00,43.50
2014,02,13,06,01,30.60
2014,02,13,06,02,32.20
2014,02,13,06,03,41.80
2014,02,13,06,04,45.10
2014,02,13,06,05,32.20
2014,02,13,06,06,22.50
2014,02,13,06,07,27.40
2014,02,13,06,08,37.00
2014,02,13,06,09,37.00
2014,02,13,06,10,46.70
2014,02,13,06,11,45.10
2014,02,13,06,12,38.60
2014,02,13,06,13,46.70
2014,02,13,06,14,45.10
2014,02,13,06,15,30.60
2014,02,13,06,16,37.00
2014,02,13,06,17,33.80
2014,02,13,06,18,29.00
2014,02,13,06,19,37.00
2014,02,13,06,20,48.30
2014,02,13,06,21,32.20
2014,02,13,06,22,19.30
2014,02,13,06,23,38.60
2014,02,13,06,24,22.50
2014,02,13,06,25,35.40
2014,02,13,06,26,35.40
2014,02,13,06,27,32.20
2014,02,13,06,28,30.60
2014,02,13,06,29,43.50
2014,02,13,06,30,16.10
2014,02,13,06,31,20.90
2014,02,13,06,32,27.40
2014,02,13,06,33,29.00
2014,02,13,06,34,29.00
2014,02,13,06,35,20.90
2014,02,13,06,36,20.90
2014,02,13,06,37,32.20
2014,02,13,06,38,30.60
2014,02,13,06,39,35.40
2014,02,13,06,40,33.80
2014,02,13,06,41,19.30
2014,02,13,06,42,27.40
2014,02,13,06,43,35.40
2014,02,13,06,44,38.60
2014,02,13,06,45,38.60
2014,02,13,06,46,27.40
2014,02,13,06,47,32.20
2014,02,13,06,48,37.00
2014,02,13,06,49,43.50
2014,02,13,06,50,33.80
2014,02,13,06,51,38.60
2014,02,13,06,52,29.00
2014,02,13,06,53,27.40
2014,02,13,06,54,22.50
2014,02,13,06,55,38.60
2014,02,13,06,56,33.80
2014,02,13,06,57,33.80
2014,02,13,06,58,37.00
2014,02,13,06,59,27.40
2014,02,13,07,00,48.30
2014,02,13,07,01,33.80
2014,02,13,07,02,25.70
2014,02,13,07,03,27.40
2014,02,13,07,04,41.80
2014,02,13,07,05,38.60
2014,02,13,07,06,33.80
2014,02,13,07,07,32.20
2014,02,13,07,08,37.00
2014,02,13,07,09,11.30
2014,02,13,07,10,17.70
2014,02,13,07,11,37.00
2014,02,13,07,12,24.20
2014,02,13,07,13,24.20
2014,02,13,07,14,29.00
2014,02,13,07,15,37.00
2014,02,13,07,16,32.20
2014,02,13,07,17,30.60
2014,02,13,07,18,22.50
2014,02,13,07,19,24.20
2014,02,13,07,20,22.50
2014,02,13,07,21,22.50
2014,02,13,07,22,11.30
2014,02,13,07,23,14.50
2014,02,13,07,24,24.20
2014,02,13,07,25,30.60
2014,02,13,07,26,20.90
2014,02,13,07,27,17.70
2014,02,13,07,28,29.00
2014,02,13,07,29,17.70
2014,02,13,07,30,19.30
2014,02,13,07,31,11.30
2014,02,13,07,32,14.50
2014,02,13,07,33,24.20
2014,02,13,07,34,16.10
2014,02,13,07,35,17.70
2014,02,13,07,36,14.50
2014,02,13,07,37,20.90
2014,02,13,07,38,17.70
2014,02,13,07,39,25.70
2014,02,13,07,40,22.50
2014,02,13,07,41,29.00
2014,02,13,07,42,19.30
2014,02,13,07,43,9.60
2014,02,13,07,44,8.10
2014,02,13,07,45,22.50
2014,02,13,07,46,25.70
2014,02,13,07,47,25.70
2014,02,13,07,48,16.10
2014,02,13,07,49,4.80
2014,02,13,07,50,6.40
2014,02,13,07,51,20.90
2014,02,13,07,52,27.40
2014,02,13,07,53,14.50
2014,02,13,07,54,11.30
2014,02,13,07,55,16.10
2014,02,13,07,56,19.30
2014,02,13,07,57,19.30
2014,02,13,07,58,38.60
2014,02,13,07,59,11.30
2014,02,13,08,00,20.90
2014,02,13,08,01,20.90
2014,02,13,08,02,22.50
2014,02,13,08,03,20.90
2014,02,13,08,04,32.20
2014,02,13,08,05,25.70
2014,02,13,08,06,38.60
2014,02,13,08,07,24.20
2014,02,13,08,08,19.30
2014,02,13,08,09,16.10
2014,02,13,08,10,30.60
2014,02,13,08,11,25.70
2014,02,13,08,12,29.00
2014,02,13,08,13,22.50
2014,02,13,08,14,16.10
2014,02,13,08,15,8.10
2014,02,13,08,16,24.20
2014,02,13,08,17,11.30
2014,02,13,08,18,22.50
2014,02,13,08,19,20.90
2014,02,13,08,20,20.90
2014,02,13,08,21,6.40
2014,02,13,08,22,14.50
2014,02,13,08,23,25.70
2014,02,13,08,24,24.20
2014,02,13,08,25,25.70
2014,02,13,08,26,20.90
2014,02,13,08,27,20.90
2014,02,13,08,28,27.40
2014,02,13,08,29,20.90
2014,02,13,08,30,22.50
2014,02,13,08,31,25.70
2014,02,13,08,32,20.90
2014,02,13,08,33,24.20
2014,02,13,08,34,24.20
2014,02,13,08,35,9.60
2014,02,13,08,36,27.40
2014,02,13,08,37,33.80
2014,02,13,08,38,27.40
2014,02,13,08,39,14.50
2014,02,13,08,40,17.70
2014,02,13,08,41,20.90
2014,02,13,08,42,38.60
2014,02,13,08,43,33.80
2014,02,13,08,44,32.20
2014,02,13,08,45,32.20
2014,02,13,08,46,19.30
2014,02,13,08,47,14.50
2014,02,13,08,48,20.90
2014,02,13,08,49,19.30
2014,02,13,08,50,16.10
2014,02,13,08,51,16.10
2014,02,13,08,52,14.50
2014,02,13,08,53,20.90
2014,02,13,08,54,20.90
2014,02,13,08,55,14.50
2014,02,13,08,56,25.70
2014,02,13,08,57,20.90
2014,02,13,08,58,33.80
2014,02,13,08,59,33.80
2014,02,13,09,00,20.90
2014,02,13,09,01,33.80
2014,02,13,09,02,27.40
2014,02,13,09,03,22.50
2014,02,13,09,04,16.10
2014,02,13,09,05,27.40
2014,02,13,09,06,35.40
2014,02,13,09,07,22.50
2014,02,13,09,08,35.40
2014,02,13,09,09,30.60
2014,02,13,09,10,14.50
2014,02,13,09,11,24.20
2014,02,13,09,12,32.20
2014,02,13,09,13,25.70
2014,02,13,09,14,30.60
2014,02,13,09,15,46.70
2014,02,13,09,16,46.70
2014,02,13,09,17,27.40
2014,02,13,09,18,25.70
2014,02,13,09,19,41.80
2014,02,13,09,20,41.80
2014,02,13,09,21,41.80
2014,02,13,09,22,32.20
2014,02,13,09,23,29.00
2014,02,13,09,24,25.70
2014,02,13,09,25,46.70
2014,02,13,09,26,27.40
2014,02,13,09,27,45.10
2014,02,13,09,28,37.00
2014,02,13,09,29,46.70
2014,02,13,09,30,37.00
2014,02,13,09,31,24.20
2014,02,13,09,32,33.80
2014,02,13,09,33,33.80
2014,02,13,09,34,29.00
2014,02,13,09,35,43.50
2014,02,13,09,36,29.00
2014,02,13,09,37,35.40
2014,02,13,09,38,33.80
2014,02,13,09,39,40.20
2014,02,13,09,40,37.00
2014,02,13,09,41,33.80
2014,02,13,09,42,41.80
2014,02,13,09,43,38.60
2014,02,13,09,44,41.80
2014,02,13,09,45,32.20
2014,02,13,09,46,45.10
2014,02,13,09,47,46.70
2014,02,13,09,48,46.70
2014,02,13,09,49,32.20
2014,02,13,09,50,35.40
2014,02,13,09,51,32.20
2014,02,13,09,52,35.40
2014,02,13,09,53,25.70
2014,02,13,09,54,43.50
2014,02,13,09,55,48.30
2014,02,13,09,56,35.40
2014,02,13,09,57,38.60
2014,02,13,09,58,38.60
2014,02,13,09,59,30.60
2014,02,13,10,00,30.60
2014,02,13,10,01,37.00
2014,02,13,10,02,35.40
2014,02,13,10,03,37.00
2014,02,13,10,04,22.50
2014,02,13,10,05,27.40
2014,02,13,10,06,17.70
2014,02,13,10,07,32.20
2014,02,13,10,08,29.00
2014,02,13,10,09,20.90
2014,02,13,10,10,16.10
2014,02,13,10,11,20.90
2014,02,13,10,12,41.80
2014,02,13,10,13,48.30
2014,02,13,10,14,46.70
2014,02,13,10,15,37.00
2014,02,13,10,16,20.90
2014,02,13,10,17,11.30
2014,02,13,10,18,35.40
2014,02,13,10,19,37.00
2014,02,13,10,20,29.00
2014,02,13,10,21,27.40
2014,02,13,10,22,16.10
2014,02,13,10,23,33.80
2014,02,13,10,24,16.10
2014,02,13,10,25,25.70
2014,02,13,10,26,38.60
2014,02,13,10,27,40.20
2014,02,13,10,28,25.70
2014,02,13,10,29,11.30
2014,02,13,10,30,11.30
2014,02,13,10,31,19.30
2014,02,13,10,32,19.30
2014,02,13,10,33,17.70
2014,02,13,10,34,20.90
2014,02,13,10,35,24.20
2014,02,13,10,36,19.30
2014,02,13,10,37,17.70
2014,02,13,10,38,25.70
2014,02,13,10,39,6.40
2014,02,13,10,40,16.10
2014,02,13,10,41,19.30
2014,02,13,10,42,40.20
2014,02,13,10,43,19.30
2014,02,13,10,44,27.40
2014,02,13,10,45,29.00
2014,02,13,10,46,35.40
2014,02,13,10,47,20.90
2014,02,13,10,48,27.40
2014,02,13,10,49,17.70
2014,02,13,10,50,19.30
2014,02,13,10,51,22.50
2014,02,13,10,52,24.20
2014,02,13,10,53,24.20
2014,02,13,10,54,29.00
2014,02,13,10,55,14.50
2014,02,13,10,56,16.10
2014,02,13,10,57,19.30
2014,02,13,10,58,40.20
2014,02,13,10,59,35.40
2014,02,13,11,00,22.50
2014,02,13,11,01,20.90
2014,02,13,11,02,11.30
2014,02,13,11,03,9.60
2014,02,13,11,04,12.90
2014,02,13,11,05,17.70
2014,02,13,11,06,27.40
2014,02,13,11,07,24.20
2014,02,13,11,08,22.50
2014,02,13,11,09,11.30
2014,02,13,11,10,35.40
2014,02,13,11,11,14.50
2014,02,13,11,12,24.20
2014,02,13,11,13,19.30
2014,02,13,11,14,30.60
2014,02,13,11,15,45.10
2014,02,13,11,16,25.70
2014,02,13,11,17,20.90
2014,02,13,11,18,35.40
2014,02,13,11,19,40.20
2014,02,13,11,20,22.50
2014,02,13,11,21,22.50
2014,02,13,11,22,25.70
2014,02,13,11,23,27.40
2014,02,13,11,24,19.30
2014,02,13,11,25,20.90
2014,02,13,11,26,12.90
2014,02,13,11,27,6.40
2014,02,13,11,28,14.50
2014,02,13,11,29,17.70
2014,02,13,11,30,11.30
2014,02,13,11,31,9.60
2014,02,13,11,32,17.70
2014,02,13,11,33,25.70
2014,02,13,11,34,19.30
2014,02,13,11,35,29.00
2014,02,13,11,36,32.20
2014,02,13,11,37,43.50
2014,02,13,11,38,37.00
2014,02,13,11,39,16.10
2014,02,13,11,40,22.50
2014,02,13,11,41,32.20
2014,02,13,11,42,25.70
2014,02,13,11,43,20.90
2014,02,13,11,44,40.20
2014,02,13,11,45,22.50
2014,02,13,11,46,22.50
2014,02,13,11,47,33.80
2014,02,13,11,48,37.00
2014,02,13,11,49,25.70
2014,02,13,11,50,27.40
2014,02,13,11,51,24.20
2014,02,13,11,52,22.50
2014,02,13,11,53,32.20
2014,02,13,11,54,17.70
2014,02,13,11,55,20.90
2014,02,13,11,56,32.20
2014,02,13,11,57,17.70
2014,02,13,11,58,20.90
2014,02,13,11,59,32.20
2014,02,13,12,00,33.80
2014,02,13,12,01,25.70
2014,02,13,12,02,25.70
2014,02,13,12,03,19.30
2014,02,13,12,04,17.70
2014,02,13,12,05,19.30
2014,02,13,12,06,22.50
2014,02,13,12,07,30.60
2014,02,13,12,08,24.20
2014,02,13,12,09,17.70
2014,02,13,12,10,19.30
2014,02,13,12,11,19.30
2014,02,13,12,12,22.50
2014,02,13,12,13,17.70
2014,02,13,12,14,20.90
2014,02,13,12,15,19.30
2014,02,13,12,16,12.90
2014,02,13,12,17,11.30
2014,02,13,12,18,9.60
2014,02,13,12,19,9.60
2014,02,13,12,20,17.70
2014,02,13,12,21,11.30
2014,02,13,12,22,17.70
2014,02,13,12,23,32.20
2014,02,13,12,24,20.90
2014,02,13,12,25,16.10
2014,02,13,12,26,17.70
2014,02,13,12,27,16.10
2014,02,13,12,28,17.70
2014,02,13,12,29,22.50
2014,02,13,12,30,14.50
2014,02,13,12,31,9.60
2014,02,13,12,32,17.70
2014,02,13,12,33,19.30
2014,02,13,12,34,20.90
2014,02,13,12,35,17.70
2014,02,13,12,36,17.70
2014,02,13,12,37,22.50
2014,02,13,12,38,24.20
2014,02,13,12,39,22.50
2014,02,13,12,40,20.90
2014,02,13,12,41,22.50
2014,02,13,12,42,22.50
2014,02,13,12,43,16.10
2014,02,13,12,44,6.40
2014,02,13,12,45,17.70
2014,02,13,12,46,17.70
2014,02,13,12,47,9.60
2014,02,13,12,48,25.70
2014,02,13,12,49,22.50
2014,02,13,12,50,14.50
2014,02,13,12,51,22.50
2014,02,13,12,52,11.30
2014,02,13,12,53,27.40
2014,02,13,12,54,25.70
2014,02,13,12,55,25.70
2014,02,13,12,56,16.10
2014,02,13,12,57,11.30
2014,02,13,12,58,17.70
2014,02,13,12,59,6.40
2014,02,13,13,00,8.10
2014,02,13,13,01,22.50
2014,02,13,13,02,22.50
2014,02,13,13,03,9.60
2014,02,13,13,04,33.80
2014,02,13,13,05,32.20
2014,02,13,13,06,32.20
2014,02,13,13,07,29.00
2014,02,13,13,08,30.60
2014,02,13,13,09,30.60
2014,02,13,13,10,30.60
2014,02,13,13,11,22.50
2014,02,13,13,12,14.50
2014,02,13,13,13,22.50
2014,02,13,13,14,30.60
2014,02,13,13,15,19.30
2014,02,13,13,16,22.50
2014,02,13,13,17,24.20
2014,02,13,13,18,27.40
2014,02,13,13,19,27.40
2014,02,13,13,20,29.00
2014,02,13,13,21,25.70
2014,02,13,13,22,27.40
2014,02,13,13,23,37.00
2014,02,13,13,24,32.20
2014,02,13,13,25,20.90
2014,02,13,13,26,16.10
2014,02,13,13,27,11.30
2014,02,13,13,28,19.30
2014,02,13,13,29,27.40
2014,02,13,13,30,19.30
2014,02,13,13,31,40.20
2014,02,13,13,32,27.40
2014,02,13,13,33,32.20
2014,02,13,13,34,22.50
2014,02,13,13,35,22.50
2014,02,13,13,36,17.70
2014,02,13,13,37,17.70
2014,02,13,13,38,17.70
2014,02,13,13,39,29.00
2014,02,13,13,40,24.20
2014,02,13,13,41,24.20
2014,02,13,13,42,14.50
2014,02,13,13,43,20.90
2014,02,13,13,44,20.90
2014,02,13,13,45,20.90
2014,02,13,13,46,22.50
2014,02,13,13,47,19.30
2014,02,13,13,48,22.50
2014,02,13,13,49,17.70
2014,02,13,13,50,22.50
2014,02,13,13,51,29.00
2014,02,13,13,52,25.70
2014,02,13,13,53,24.20
2014,02,13,13,54,22.50
2014,02,13,13,55,30.60
2014,02,13,13,56,19.30
2014,02,13,13,57,27.40
2014,02,13,13,58,14.50
2014,02,13,13,59,22.50
2014,02,13,14,00,17.70
2014,02,13,14,01,20.90
2014,02,13,14,02,19.30
2014,02,13,14,03,17.70
2014,02,13,14,04,16.10
2014,02,13,14,05,17.70
2014,02,13,14,06,11.30
2014,02,13,14,07,8.10
2014,02,13,14,08,27.40
2014,02,13,14,09,9.60
2014,02,13,14,10,11.30
2014,02,13,14,11,6.40
2014,02,13,14,12,6.40
2014,02,13,14,13,9.60
2014,02,13,14,14,11.30
2014,02,13,14,15,25.70
2014,02,13,14,16,14.50
2014,02,13,14,17,14.50
2014,02,13,14,18,8.10
2014,02,13,14,19,29.00
2014,02,13,14,20,19.30
2014,02,13,14,21,24.20
2014,02,13,14,22,17.70
2014,02,13,14,23,17.70
2014,02,13,14,24,16.10
2014,02,13,14,25,11.30
2014,02,13,14,26,11.30
2014,02,13,14,27,19.30
2014,02,13,14,28,11.30
2014,02,13,14,29,16.10
2014,02,13,14,30,16.10
2014,02,13,14,31,8.10
2014,02,13,14,32,8.10
2014,02,13,14,33,9.60
2014,02,13,14,34,20.90
2014,02,13,14,35,19.30
2014,02,13,14,36,9.60
2014,02,13,14,37,11.30
2014,02,13,14,38,19.30
2014,02,13,14,39,22.50
2014,02,13,14,40,14.50
2014,02,13,14,41,14.50
2014,02,13,14,42,19.30
2014,02,13,14,43,17.70
2014,02,13,14,44,12.90
2014,02,13,14,45,9.60
2014,02,13,14,46,11.30
2014,02,13,14,47,14.50
2014,02,13,14,48,16.10
2014,02,13,14,49,20.90
2014,02,13,14,50,12.90
2014,02,13,14,51,8.10
2014,02,13,14,52,11.30
2014,02,13,14,53,16.10
2014,02,13,14,54,25.70
2014,02,13,14,55,16.10
2014,02,13,14,56,19.30
2014,02,13,14,57,4.80
2014,02,13,14,58,19.30
2014,02,13,14,59,16.10
2014,02,13,15,00,9.60
2014,02,13,15,01,3.20
2014,02,13,15,02,4.80
2014,02,13,15,03,14.50
2014,02,13,15,04,20.90
2014,02,13,15,05,9.60
2014,02,13,15,06,11.30
2014,02,13,15,07,17.70
2014,02,13,15,08,16.10
2014,02,13,15,09,11.30
2014,02,13,15,10,29.00
2014,02,13,15,11,29.00
2014,02,13,15,12,27.40
2014,02,13,15,13,17.70
2014,02,13,15,14,19.30
2014,02,13,15,15,11.30
2014,02,13,15,16,24.20
2014,02,13,15,17,24.20
2014,02,13,15,18,20.90
2014,02,13,15,19,20.90
2014,02,13,15,20,14.50
2014,02,13,15,21,25.70
2014,02,13,15,22,27.40
2014,02,13,15,23,11.30
2014,02,13,15,24,17.70
2014,02,13,15,25,24.20
2014,02,13,15,26,24.20
2014,02,13,15,27,9.60
2014,02,13,15,28,20.90
2014,02,13,15,29,17.70
2014,02,13,15,30,19.30
2014,02,13,15,31,19.30
2014,02,13,15,32,20.90
2014,02,13,15,33,20.90
2014,02,13,15,34,24.20
2014,02,13,15,35,17.70
2014,02,13,15,36,17.70
2014,02,13,15,37,16.10
2014,02,13,15,38,12.90
2014,02,13,15,39,12.90
2014,02,13,15,40,16.10
2014,02,13,15,41,16.10
2014,02,13,15,42,20.90
2014,02,13,15,43,17.70
2014,02,13,15,44,32.20
2014,02,13,15,45,22.50
2014,02,13,15,46,22.50
2014,02,13,15,47,20.90
2014,02,13,15,48,9.60
2014,02,13,15,49,9.60
2014,02,13,15,50,9.60
2014,02,13,15,51,24.20
2014,02,13,15,52,22.50
2014,02,13,15,53,14.50
2014,02,13,15,54,9.60
2014,02,13,15,55,11.30
2014,02,13,15,56,11.30
2014,02,13,15,57,20.90
2014,02,13,15,58,24.20
2014,02,13,15,59,12.90
2014,02,13,16,00,14.50
2014,02,13,16,01,11.30
2014,02,13,16,02,19.30
2014,02,13,16,03,11.30
2014,02,13,16,04,22.50
2014,02,13,16,05,24.20
2014,02,13,16,06,6.40
2014,02,13,16,07,22.50
2014,02,13,16,08,19.30
2014,02,13,16,09,12.90
2014,02,13,16,10,17.70
2014,02,13,16,11,14.50
2014,02,13,16,12,11.30
2014,02,13,16,13,9.60
2014,02,13,16,14,9.60
2014,02,13,16,15,12.90
2014,02,13,16,16,9.60
2014,02,13,16,17,8.10
2014,02,13,16,18,8.10
2014,02,13,16,19,8.10
2014,02,13,16,20,17.70
2014,02,13,16,21,20.90
2014,02,13,16,22,16.10
2014,02,13,16,23,16.10
2014,02,13,16,24,14.50
2014,02,13,16,25,14.50
2014,02,13,16,26,12.90
2014,02,13,16,27,12.90
2014,02,13,16,28,16.10
2014,02,13,16,29,17.70
2014,02,13,16,30,17.70
2014,02,13,16,31,20.90
2014,02,13,16,32,17.70
2014,02,13,16,33,11.30
2014,02,13,16,34,19.30
2014,02,13,16,35,14.50
2014,02,13,16,36,6.40
2014,02,13,16,37,6.40
2014,02,13,16,38,8.10
2014,02,13,16,39,6.40
2014,02,13,16,40,12.90
2014,02,13,16,41,6.40
2014,02,13,16,42,9.60
2014,02,13,16,43,11.30
2014,02,13,16,44,9.60
2014,02,13,16,45,14.50
2014,02,13,16,46,14.50
2014,02,13,16,47,3.20
2014,02,13,16,52,4.80
2014,02,13,16,53,9.60
2014,02,13,16,54,9.60
2014,02,13,16,55,8.10
2014,02,13,16,56,6.40
2014,02,13,16,57,14.50
2014,02,13,16,58,6.40
2014,02,13,16,59,4.80
2014,02,13,17,00,6.40
2014,02,13,17,01,3.20
2014,02,13,17,04,4.80
2014,02,13,17,05,3.20
2014,02,13,17,13,4.80
2014,02,13,17,14,4.80
2014,02,13,17,15,4.80
2014,02,13,17,16,4.80
2014,02,13,17,17,1.60
2014,02,13,19,21,4.80
2014,02,13,19,36,4.80
2014,02,13,19,37,3.20
2014,02,13,20,13,3.20
2014,02,13,20,14,8.10
2014,02,13,20,16,3.20
2014,02,13,20,30,1.60
2014,02,13,20,31,3.20
2014,02,13,20,41,1.60
2014,02,13,20,43,3.20
2014,02,13,20,44,4.80
2014,02,13,20,45,6.40
2014,02,13,20,46,6.40
2014,02,13,21,10,6.40
2014,02,13,21,11,4.80
2014,02,13,21,14,1.60
2014,02,13,21,15,3.20
2014,02,13,21,16,8.10
2014,02,13,21,18,4.80
2014,02,13,21,23,3.20
2014,02,13,21,29,8.10
2014,02,13,21,30,4.80
2014,02,13,21,31,1.60
2014,02,13,21,32,3.20
2014,02,13,21,34,6.40
2014,02,13,21,35,4.80
2014,02,13,21,36,8.10
2014,02,13,21,37,8.10
2014,02,13,21,38,4.80
2014,02,13,21,39,9.60
2014,02,13,21,40,6.40
2014,02,13,21,41,9.60
2014,02,13,21,42,3.20
2014,02,13,21,43,1.60
2014,02,13,21,44,9.60
2014,02,13,21,45,14.50
2014,02,13,21,46,14.50
2014,02,13,21,47,14.50
2014,02,13,21,48,17.70
2014,02,13,21,49,8.10
2014,02,13,21,50,9.60
2014,02,13,21,51,17.70
2014,02,13,21,52,20.90
2014,02,13,21,53,9.60
2014,02,13,21,54,16.10
2014,02,13,21,55,16.10
2014,02,13,21,56,6.40
2014,02,13,21,57,19.30
2014,02,13,21,58,16.10
2014,02,13,21,59,16.10